LOG51D EGAE-EGLL

Flight info

Callsign LOG51D
Flight time 1h 5m
Altitude 25000
Route BELZU L10 DUFFY/N0435F330 DCT ETIGA DCT INKOB Q39 NOMSU UQ4 WAL UY53 NUGRA
Aircraft E145/M-SABDFGRW/S

Departure

Time 2026-05-07 17:11
Airport City of Derry Airport (EGAE)

Arrival

Time 2026-05-07 18:16
Airport London Heathrow Airport (EGLL)
Time Latitude Longitude Altitude Speed Heading
2026-05-07 16:38 55.04009 -7.15814 11 ft 0 kts 169°
2026-05-07 17:05 55.04007 -7.15813 12 ft 2 kts 168°
2026-05-07 17:06 55.04003 -7.15811 12 ft 0 kts 150°
2026-05-07 17:06 55.04002 -7.15802 12 ft 1 kts 89°
2026-05-07 17:06 55.04015 -7.15789 12 ft 3 kts
2026-05-07 17:06 55.04048 -7.15812 12 ft 6 kts 329°
2026-05-07 17:07 55.04088 -7.15870 12 ft 8 kts 326°
2026-05-07 17:07 55.04150 -7.15901 11 ft 10 kts 348°
2026-05-07 17:07 55.04231 -7.15931 11 ft 13 kts 347°
2026-05-07 17:07 55.04317 -7.15904 11 ft 14 kts 63°
2026-05-07 17:08 55.04351 -7.15714 10 ft 17 kts 73°
2026-05-07 17:08 55.04390 -7.15491 9 ft 20 kts 74°
2026-05-07 17:08 55.04435 -7.15237 9 ft 23 kts 73°
2026-05-07 17:08 55.04484 -7.14950 8 ft 25 kts 73°
2026-05-07 17:09 55.04525 -7.14769 8 ft 7 kts 122°
2026-05-07 17:09 55.04506 -7.14826 8 ft 7 kts 259°
2026-05-07 17:09 55.04501 -7.14854 8 ft 4 kts 253°
2026-05-07 17:09 55.04420 -7.15318 9 ft 43 kts 253°
2026-05-07 17:10 55.04402 -7.15421 9 ft 0 kts 253°
2026-05-07 17:10 55.04370 -7.15607 10 ft 51 kts 253°
2026-05-07 17:10 55.04194 -7.16622 15 ft 118 kts 253°
2026-05-07 17:10 55.03945 -7.18157 299 ft 142 kts 253°
2026-05-07 17:11 55.03692 -7.19835 932 ft 148 kts 253°
2026-05-07 17:11 55.03400 -7.21758 1174 ft 188 kts 254°
2026-05-07 17:11 55.03014 -7.24246 1354 ft 233 kts 254°
2026-05-07 17:11 55.02584 -7.27000 2203 ft 240 kts 253°
2026-05-07 17:12 55.02144 -7.29798 3115 ft 241 kts 254°
2026-05-07 17:12 55.01637 -7.32557 3934 ft 245 kts 242°
2026-05-07 17:12 55.00444 -7.34664 4748 ft 249 kts 208°
2026-05-07 17:12 54.98769 -7.35245 5564 ft 254 kts 176°
2026-05-07 17:13 54.97144 -7.34110 6386 ft 261 kts 144°
2026-05-07 17:13 54.96072 -7.31571 7148 ft 271 kts 114°
2026-05-07 17:13 54.95792 -7.28286 7890 ft 279 kts 97°
2026-05-07 17:13 54.95677 -7.24896 8628 ft 282 kts 97°
2026-05-07 17:14 54.95555 -7.21437 9348 ft 286 kts 97°
2026-05-07 17:14 54.95435 -7.17994 10049 ft 289 kts 97°
2026-05-07 17:14 54.95312 -7.14490 10633 ft 297 kts 97°
2026-05-07 17:14 54.95180 -7.10796 11079 ft 310 kts 97°
2026-05-07 17:15 54.95044 -7.07010 11539 ft 320 kts 97°
2026-05-07 17:15 54.94891 -7.03078 11984 ft 330 kts 100°
2026-05-07 17:15 54.94156 -6.99364 12440 ft 328 kts 126°
2026-05-07 17:15 54.92868 -6.96053 13067 ft 329 kts 127°
2026-05-07 17:16 54.91619 -6.92674 13663 ft 333 kts 127°
2026-05-07 17:16 54.90345 -6.89221 14243 ft 336 kts 127°
2026-05-07 17:16 54.89064 -6.85753 14811 ft 339 kts 126°
2026-05-07 17:16 54.87776 -6.82269 15335 ft 342 kts 126°
2026-05-07 17:17 54.86504 -6.78840 15912 ft 344 kts 124°
2026-05-07 17:17 54.85197 -6.75312 16506 ft 344 kts 123°
2026-05-07 17:17 54.83883 -6.71773 17044 ft 346 kts 122°
2026-05-07 17:17 54.82547 -6.68177 17557 ft 349 kts 122°
2026-05-07 17:18 54.81191 -6.64535 18101 ft 351 kts 122°
2026-05-07 17:18 54.79863 -6.60974 18680 ft 350 kts 122°
2026-05-07 17:18 54.78556 -6.57476 19253 ft 349 kts 123°
2026-05-07 17:18 54.77225 -6.53915 19864 ft 349 kts 124°
2026-05-07 17:19 54.75904 -6.50388 20513 ft 349 kts 125°
2026-05-07 17:19 54.74587 -6.46876 21267 ft 348 kts 126°
2026-05-07 17:19 54.73261 -6.43347 22165 ft 345 kts 127°
2026-05-07 17:19 54.71977 -6.39937 22788 ft 342 kts 127°
2026-05-07 17:20 54.70686 -6.36508 23361 ft 340 kts 128°
2026-05-07 17:20 54.69382 -6.33054 23855 ft 341 kts 128°
2026-05-07 17:20 54.68073 -6.29589 24505 ft 339 kts 128°
2026-05-07 17:20 54.66783 -6.26178 25132 ft 337 kts 128°
2026-05-07 17:21 54.65511 -6.22820 25722 ft 335 kts 128°
2026-05-07 17:21 54.64243 -6.19477 26294 ft 334 kts 128°
2026-05-07 17:21 54.62956 -6.16089 26862 ft 333 kts 128°
2026-05-07 17:21 54.61699 -6.12782 27440 ft 331 kts 128°
2026-05-07 17:22 54.60426 -6.09440 28007 ft 330 kts 128°
2026-05-07 17:22 54.59179 -6.06168 28587 ft 327 kts 128°
2026-05-07 17:22 54.57933 -6.02908 29140 ft 325 kts 128°
2026-05-07 17:22 54.56691 -5.99659 29659 ft 324 kts 128°
2026-05-07 17:23 54.55461 -5.96446 30192 ft 323 kts 128°
2026-05-07 17:23 54.54219 -5.93207 30706 ft 322 kts 128°
2026-05-07 17:23 54.52982 -5.89984 31171 ft 321 kts 128°
2026-05-07 17:23 54.51746 -5.86767 31668 ft 319 kts 128°
2026-05-07 17:24 54.50459 -5.83662 32148 ft 315 kts 131°
2026-05-07 17:24 54.49159 -5.80675 32577 ft 315 kts 131°
2026-05-07 17:24 54.47855 -5.77664 32904 ft 318 kts 131°
2026-05-07 17:24 54.46498 -5.74533 32918 ft 331 kts 131°
2026-05-07 17:25 54.45097 -5.71297 32924 ft 344 kts 131°
2026-05-07 17:25 54.43636 -5.67926 32923 ft 357 kts 131°
2026-05-07 17:25 54.42120 -5.64431 32922 ft 369 kts 130°
2026-05-07 17:25 54.40564 -5.60849 32925 ft 380 kts 130°
2026-05-07 17:26 54.38963 -5.57170 32927 ft 391 kts 130°
2026-05-07 17:26 54.37306 -5.53367 32931 ft 401 kts 130°
2026-05-07 17:26 54.33875 -5.45513 32928 ft 417 kts 130°
2026-05-07 17:27 54.30375 -5.37524 32930 ft 422 kts 130°
2026-05-07 17:27 54.26830 -5.29458 32934 ft 424 kts 130°
2026-05-07 17:28 54.23288 -5.21427 32931 ft 426 kts 130°
2026-05-07 17:28 54.19719 -5.13361 32938 ft 424 kts 130°
2026-05-07 17:29 54.16169 -5.05364 32941 ft 423 kts 130°
2026-05-07 17:29 54.12622 -4.97400 32943 ft 422 kts 130°
2026-05-07 17:30 54.09086 -4.89485 32950 ft 421 kts 130°
2026-05-07 17:30 54.05542 -4.81579 32951 ft 420 kts 130°
2026-05-07 17:31 54.02011 -4.73661 32953 ft 419 kts 130°
2026-05-07 17:31 53.98510 -4.65805 32954 ft 418 kts 130°
2026-05-07 17:32 53.95002 -4.57959 32956 ft 418 kts 130°
2026-05-07 17:32 53.92080 -4.51441 32953 ft 412 kts 130°
2026-05-07 17:33 53.88041 -4.42461 32963 ft 409 kts 130°
2026-05-07 17:33 53.84763 -4.34656 32964 ft 409 kts 128°
2026-05-07 17:34 53.81498 -4.26655 32960 ft 408 kts 128°
2026-05-07 17:34 53.78278 -4.18800 32965 ft 409 kts 128°
2026-05-07 17:35 53.75006 -4.10848 32968 ft 416 kts 128°
2026-05-07 17:35 53.71669 -4.02765 32967 ft 422 kts 127°
2026-05-07 17:36 53.68303 -3.94635 32965 ft 426 kts 127°
2026-05-07 17:36 53.64891 -3.86429 32966 ft 429 kts 127°
2026-05-07 17:37 53.61451 -3.78183 32966 ft 431 kts 127°
2026-05-07 17:37 53.58007 -3.69954 32963 ft 430 kts 127°
2026-05-07 17:38 53.54566 -3.61762 32957 ft 429 kts 127°
2026-05-07 17:38 53.51121 -3.53584 32960 ft 429 kts 127°
2026-05-07 17:39 53.47672 -3.45411 32961 ft 428 kts 126°
2026-05-07 17:39 53.45012 -3.36345 32966 ft 431 kts 114°
2026-05-07 17:40 53.42665 -3.27039 32970 ft 430 kts 116°
2026-05-07 17:40 53.40286 -3.17719 32974 ft 429 kts 116°
2026-05-07 17:41 53.37282 -3.09081 32979 ft 423 kts 129°
2026-05-07 17:41 53.33737 -3.01168 32978 ft 423 kts 129°
2026-05-07 17:42 53.30225 -2.93297 32987 ft 422 kts 128°
2026-05-07 17:42 53.26668 -2.85347 32987 ft 422 kts 128°
2026-05-07 17:43 53.23116 -2.77433 32989 ft 421 kts 128°
2026-05-07 17:43 53.19567 -2.69552 32988 ft 421 kts 128°
2026-05-07 17:44 53.16043 -2.61756 32992 ft 421 kts 128°
2026-05-07 17:44 53.12560 -2.53871 32993 ft 421 kts 125°
2026-05-07 17:45 53.09277 -2.45781 32992 ft 421 kts 125°
2026-05-07 17:45 53.05965 -2.37699 32994 ft 421 kts 125°
2026-05-07 17:46 53.02313 -2.30143 32998 ft 418 kts 139°
2026-05-07 17:46 52.97501 -2.24596 32999 ft 416 kts 149°
2026-05-07 17:47 52.92536 -2.19434 32998 ft 417 kts 149°
2026-05-07 17:47 52.87581 -2.14255 33001 ft 417 kts 149°
2026-05-07 17:48 52.82554 -2.09012 33003 ft 417 kts 149°
2026-05-07 17:48 52.79997 -2.06351 32580 ft 424 kts 149°
2026-05-07 17:48 52.77416 -2.03669 31990 ft 418 kts 149°
2026-05-07 17:49 52.74903 -2.01061 31518 ft 411 kts 149°
2026-05-07 17:49 52.72459 -1.98528 31095 ft 404 kts 149°
2026-05-07 17:49 52.70031 -1.96015 30659 ft 398 kts 149°
2026-05-07 17:49 52.67688 -1.93593 30220 ft 393 kts 149°
2026-05-07 17:50 52.65364 -1.91193 29785 ft 388 kts 149°
2026-05-07 17:50 52.63063 -1.88820 29333 ft 373 kts 150°
2026-05-07 17:50 52.60823 -1.86514 28889 ft 370 kts 150°
2026-05-07 17:50 52.58623 -1.84252 28457 ft 368 kts 150°
2026-05-07 17:51 52.56450 -1.82020 28027 ft 367 kts 150°
2026-05-07 17:51 52.54235 -1.79747 27590 ft 366 kts 150°
2026-05-07 17:51 52.52050 -1.77508 27160 ft 365 kts 150°
2026-05-07 17:51 52.49902 -1.75310 26691 ft 366 kts 150°
2026-05-07 17:52 52.47726 -1.73085 26213 ft 366 kts 150°
2026-05-07 17:52 52.45559 -1.70872 25740 ft 365 kts 150°
2026-05-07 17:52 52.43383 -1.68653 25249 ft 364 kts 150°
2026-05-07 17:52 52.41221 -1.66449 24757 ft 362 kts 150°
2026-05-07 17:53 52.39072 -1.64263 24266 ft 361 kts 150°
2026-05-07 17:53 52.36924 -1.62079 23777 ft 358 kts 150°
2026-05-07 17:53 52.34791 -1.59914 23297 ft 356 kts 150°
2026-05-07 17:53 52.32653 -1.57746 22809 ft 354 kts 150°
2026-05-07 17:54 52.30554 -1.55620 22313 ft 352 kts 150°
2026-05-07 17:54 52.28463 -1.53504 21807 ft 350 kts 150°
2026-05-07 17:54 52.26363 -1.51382 21299 ft 347 kts 150°
2026-05-07 17:54 52.24282 -1.49281 20791 ft 344 kts 150°
2026-05-07 17:55 52.22244 -1.47225 20299 ft 341 kts 149°
2026-05-07 17:55 52.20388 -1.44873 19805 ft 340 kts 140°
2026-05-07 17:55 52.18583 -1.42335 19309 ft 337 kts 141°
2026-05-07 17:55 52.16822 -1.39872 18867 ft 333 kts 141°
2026-05-07 17:56 52.15052 -1.37400 18472 ft 328 kts 140°
2026-05-07 17:56 52.13351 -1.35027 18105 ft 324 kts 140°
2026-05-07 17:56 52.11645 -1.32651 17737 ft 320 kts 141°
2026-05-07 17:56 52.09936 -1.30273 17375 ft 316 kts 141°
2026-05-07 17:57 52.08246 -1.27923 16992 ft 313 kts 141°
2026-05-07 17:57 52.07130 -1.26374 16707 ft 312 kts 141°
2026-05-07 17:57 52.04940 -1.23338 16147 ft 308 kts 141°
2026-05-07 17:57 52.03318 -1.21089 15786 ft 306 kts 140°
2026-05-07 17:58 52.01919 -1.19153 15522 ft 304 kts 140°
2026-05-07 17:58 52.00296 -1.16908 15191 ft 303 kts 140°
2026-05-07 17:58 51.98688 -1.14684 14833 ft 303 kts 140°
2026-05-07 17:58 51.97085 -1.12471 14516 ft 302 kts 140°
2026-05-07 17:59 51.95493 -1.10276 14241 ft 300 kts 140°
2026-05-07 17:59 51.93903 -1.08083 13992 ft 299 kts 140°
2026-05-07 17:59 51.92317 -1.05898 13751 ft 298 kts 140°
2026-05-07 17:59 51.90724 -1.03705 13499 ft 296 kts 141°
2026-05-07 18:00 51.89138 -1.01518 13206 ft 297 kts 140°
2026-05-07 18:00 51.87570 -0.99340 12869 ft 297 kts 142°
2026-05-07 18:00 51.85961 -0.97155 12501 ft 295 kts 140°
2026-05-07 18:00 51.84740 -0.94484 12118 ft 294 kts 118°
2026-05-07 18:01 51.83864 -0.91557 11699 ft 292 kts 118°
2026-05-07 18:01 51.82943 -0.88547 11255 ft 291 kts 118°
2026-05-07 18:01 51.82055 -0.85644 10821 ft 290 kts 117°
2026-05-07 18:01 51.81166 -0.82737 10388 ft 288 kts 117°
2026-05-07 18:02 51.79373 -0.76887 9507 ft 285 kts 117°
2026-05-07 18:02 51.78485 -0.73998 9069 ft 283 kts 117°
2026-05-07 18:02 51.77395 -0.71453 8630 ft 276 kts 140°
2026-05-07 18:03 51.75717 -0.69981 8213 ft 269 kts 160°
2026-05-07 18:03 51.73985 -0.68954 8035 ft 257 kts 160°
2026-05-07 18:03 51.72355 -0.67983 8024 ft 247 kts 160°
2026-05-07 18:03 51.70747 -0.67028 8030 ft 244 kts 160°
2026-05-07 18:04 51.69165 -0.66088 8031 ft 242 kts 160°
2026-05-07 18:04 51.67572 -0.65145 8037 ft 242 kts 160°
2026-05-07 18:04 51.65973 -0.64202 8038 ft 242 kts 161°
2026-05-07 18:04 51.64294 -0.63982 8047 ft 239 kts 194°
2026-05-07 18:05 51.62878 -0.65298 8055 ft 237 kts 229°
2026-05-07 18:05 51.62114 -0.67643 8039 ft 239 kts 250°
2026-05-07 18:05 51.61563 -0.70189 7800 ft 243 kts 250°
2026-05-07 18:05 51.60996 -0.72804 7544 ft 242 kts 250°
2026-05-07 18:06 51.60440 -0.75367 7297 ft 243 kts 250°
2026-05-07 18:06 51.59884 -0.77928 7072 ft 240 kts 250°
2026-05-07 18:06 51.59325 -0.80502 7042 ft 239 kts 250°
2026-05-07 18:06 51.58766 -0.83087 6826 ft 242 kts 250°
2026-05-07 18:07 51.58219 -0.85614 6572 ft 237 kts 251°
2026-05-07 18:07 51.57679 -0.88116 6316 ft 234 kts 251°
2026-05-07 18:07 51.57142 -0.90629 6066 ft 237 kts 250°
2026-05-07 18:07 51.56591 -0.93208 5812 ft 238 kts 250°
2026-05-07 18:08 51.55836 -0.95570 5556 ft 237 kts 226°
2026-05-07 18:08 51.54451 -0.96877 5323 ft 235 kts 192°
2026-05-07 18:08 51.52810 -0.97021 5091 ft 233 kts 180°
2026-05-07 18:08 51.51222 -0.96670 4836 ft 233 kts 156°
2026-05-07 18:09 51.49994 -0.95008 4658 ft 232 kts 127°
2026-05-07 18:09 51.49074 -0.92893 4461 ft 229 kts 126°
2026-05-07 18:09 51.48196 -0.90758 4247 ft 224 kts 115°
2026-05-07 18:09 51.47847 -0.88350 4075 ft 218 kts 98°
2026-05-07 18:10 51.47713 -0.86016 3984 ft 201 kts 95°
2026-05-07 18:10 51.47653 -0.83885 3983 ft 188 kts 93°
2026-05-07 18:10 51.47627 -0.81790 3995 ft 187 kts 92°
2026-05-07 18:10 51.47619 -0.79658 3885 ft 189 kts 91°
2026-05-07 18:11 51.47622 -0.77567 3666 ft 187 kts 91°
2026-05-07 18:11 51.47627 -0.76163 3522 ft 186 kts 91°
2026-05-07 18:11 51.47640 -0.73517 3255 ft 171 kts 91°
2026-05-07 18:11 51.47649 -0.71610 3026 ft 167 kts 91°
2026-05-07 18:12 51.47659 -0.69746 2803 ft 166 kts 91°
2026-05-07 18:12 51.47669 -0.67878 2557 ft 162 kts 91°
2026-05-07 18:12 51.47679 -0.66030 2316 ft 159 kts 91°
2026-05-07 18:12 51.47687 -0.64260 2092 ft 160 kts 91°
2026-05-07 18:13 51.47695 -0.62468 1863 ft 159 kts 91°
2026-05-07 18:13 51.47704 -0.60730 1634 ft 151 kts 91°
2026-05-07 18:13 51.47712 -0.59038 1424 ft 147 kts 91°
2026-05-07 18:13 51.47719 -0.57465 1220 ft 133 kts 91°
2026-05-07 18:14 51.47725 -0.56023 1044 ft 128 kts 92°
2026-05-07 18:14 51.47729 -0.54572 872 ft 129 kts 92°
2026-05-07 18:14 51.47734 -0.53147 690 ft 127 kts 92°
2026-05-07 18:14 51.47749 -0.51728 514 ft 128 kts 91°
2026-05-07 18:15 51.47750 -0.50295 356 ft 128 kts 93°
2026-05-07 18:15 51.47753 -0.48848 181 ft 129 kts 93°
2026-05-07 18:15 51.47755 -0.47434 90 ft 116 kts 91°
2026-05-07 18:15 51.47755 -0.46341 90 ft 79 kts 89°
2026-05-07 18:16 51.47758 -0.45611 90 ft 36 kts 88°
2026-05-07 18:16 51.47665 -0.45465 90 ft 16 kts 179°
2026-05-07 18:16 51.47621 -0.45465 90 ft 0 kts 179°
2026-05-07 18:17 51.47620 -0.45465 90 ft 0 kts 179°
2026-05-07 18:17 51.47602 -0.45465 90 ft 4 kts 178°
2026-05-07 18:18 51.47562 -0.45464 90 ft 7 kts 179°
2026-05-07 18:18 51.47510 -0.45433 90 ft 9 kts 118°
2026-05-07 18:18 51.47507 -0.45312 90 ft 12 kts 89°
2026-05-07 18:18 51.47508 -0.45163 90 ft 14 kts 89°
2026-05-07 18:19 51.47508 -0.44982 90 ft 17 kts 89°
2026-05-07 18:19 51.47510 -0.44781 90 ft 16 kts 90°
2026-05-07 18:19 51.47507 -0.44640 90 ft 10 kts 99°
2026-05-07 18:19 51.47458 -0.44558 90 ft 12 kts 176°
2026-05-07 18:20 51.47363 -0.44557 90 ft 14 kts 180°
2026-05-07 18:20 51.47253 -0.44553 90 ft 16 kts 179°
2026-05-07 18:20 51.47127 -0.44555 90 ft 18 kts 179°
2026-05-07 18:20 51.47008 -0.44554 90 ft 12 kts 180°
2026-05-07 18:21 51.46994 -0.44564 90 ft 2 kts 244°
2026-05-07 18:21 51.46996 -0.44608 90 ft 5 kts 271°
2026-05-07 18:21 51.46996 -0.44668 90 ft 2 kts 269°
2026-05-07 18:21 51.46996 -0.44681 90 ft 0 kts 269°